KE5SXT-2 Weather Reports


time (UTC)temp
C
wind
direction
speed
KPH
gust
KPH
rain 1hr
cm
rain 24hr
cm
rain mn
cm
humidity
%
barometer
mb
20260507192021 21 0.0 0.0 0.00 0.00 0.00 44 1017.1
20260507191021 21 0.0 0.0 0.00 0.00 0.00 44 1017.5
20260507190021 21 0.0 0.0 0.00 0.00 0.00 45 1017.6
20260507185022 21 0.0 0.0 0.00 0.00 0.00 45 1018.1
20260507184021 21 0.0 0.0 0.00 0.00 0.00 45 1018.2
20260507183021 21 0.0 0.0 0.00 0.00 0.00 45 1018.4
20260507182021 21 0.0 0.0 0.00 0.00 0.00 44 1018.7
20260507181021 20 0.0 0.0 0.00 0.00 0.00 47 1018.8
20260507180047 20 0.0 0.0 0.00 0.00 0.00 47 1018.8
20260507175021 20 0.0 0.0 0.00 0.00 0.00 47 1019.2
20260507174022 20 0.0 0.0 0.00 0.00 0.00 47 1019.4
20260507173021 20 0.0 0.0 0.00 0.00 0.00 47 1019.5
20260507172021 19 0.0 0.0 0.00 0.00 0.00 48 1019.4
20260507171021 18 0.0 0.0 0.00 0.00 0.00 49 1019.4
20260507170021 18 0.0 0.0 0.00 0.00 0.00 51 1019.5
20260507165046 18 0.0 0.0 0.00 0.00 0.00 51 1019.7
20260507164021 17 0.0 0.0 0.00 0.00 0.00 52 1019.8
20260507163021 17 0.0 0.0 0.00 0.00 0.00 52 1019.9
20260507162021 17 0.0 0.0 0.00 0.00 0.00 53 1020.1
20260507161022 17 0.0 0.0 0.00 0.00 0.00 54 1020.1
20260507160021 17 0.0 0.0 0.00 0.00 0.00 54 1020.3
20260507155021 16 0.0 0.0 0.00 0.00 0.00 55 1020.3
20260507154111 16 0.0 0.0 0.00 0.00 0.00 55 1020.4
20260507153021 16 0.0 0.0 0.00 0.00 0.00 56 1020.3
20260507152021 16 0.0 0.0 0.00 0.00 0.00 56 1020.5
20260507151046 16 0.0 0.0 0.00 0.00 0.00 58 1020.6
20260507150021 16 0.0 0.0 0.00 0.00 0.00 59 1020.7
20260507145021 15 0.0 0.0 0.00 0.00 0.00 60 1020.8
20260507144021 15 0.0 0.0 0.00 0.00 0.00 61 1020.6
20260507143021 15 0.0 0.0 0.00 0.00 0.00 61 1020.6
20260507142021 14 0.0 0.0 0.00 0.00 0.00 64 1020.5
20260507141021 14 0.0 0.0 0.00 0.00 0.00 64 1020.7
20260507140021 13 0.0 0.0 0.00 0.00 0.00 66 1020.8
20260507135046 13 0.0 0.0 0.00 0.00 0.00 67 1020.6
20260507134021 13 0.0 0.0 0.00 0.00 0.00 67 1020.4
20260507133021 13 0.0 0.0 0.00 0.00 0.00 67 1020.4
20260507132022 13 0.0 0.0 0.00 0.00 0.00 68 1020.4
20260507131046 13 0.0 0.0 0.00 0.00 0.00 69 1020.2
20260507130021 13 0.0 0.0 0.00 0.00 0.00 69 1020.1
20260507125020 13 0.0 0.0 0.00 0.00 0.00 69 1019.9
20260507124021 13 0.0 0.0 0.00 0.00 0.00 69 1019.6
20260507123021 12 0.0 0.0 0.00 0.00 0.00 68 1019.3
20260507122020 12 0.0 0.0 0.00 0.00 0.00 68 1019.1
20260507121021 13 0.0 0.0 0.00 0.00 0.00 68 1018.9
20260507120021 13 0.0 0.0 0.00 0.00 0.00 67 1018.9
20260507115020 13 0.0 0.0 0.00 0.00 0.00 67 1018.5
20260507114021 13 0.0 0.0 0.00 0.00 0.00 66 1018.6
20260507113021 13 0.0 0.0 0.00 0.00 0.00 66 1018.5
20260507112020 13 0.0 0.0 0.00 0.00 0.00 67 1018.4
20260507111046 13 0.0 0.0 0.00 0.00 0.00 67 1018.4
20260507110021 14 0.0 0.0 0.00 0.00 0.00 66 1018.5
20260507105020 14 0.0 0.0 0.00 0.00 0.00 68 1018.3
20260507104020 14 0.0 0.0 0.00 0.00 0.00 69 1018.0
20260507103020 14 0.0 0.0 0.00 0.00 0.00 71 1017.6
20260507102020 14 0.0 0.0 0.00 0.00 0.00 71 1017.7
20260507101045 15 0.0 0.0 0.00 0.00 0.00 72 1017.7
20260507100020 15 0.0 0.0 0.00 0.00 0.00 70 1017.6
20260507095020 15 0.0 0.0 0.00 0.00 0.00 71 1017.4
20260507094045 15 0.0 0.0 0.00 0.00 0.00 70 1017.2
20260507093020 15 0.0 0.0 0.00 0.00 0.00 69 1017.2
20260507092020 16 0.0 0.0 0.00 0.00 0.00 69 1017.0
20260507091020 16 0.0 0.0 0.00 0.00 0.00 72 1016.8
20260507090020 16 0.0 0.0 0.00 0.00 0.00 72 1016.7
20260507085020 16 0.0 0.0 0.00 0.00 0.00 70 1016.7
20260507084020 16 0.0 0.0 0.00 0.00 0.00 69 1016.7
20260507083020 17 0.0 0.0 0.00 0.00 0.00 69 1016.2
20260507082020 17 0.0 0.0 0.00 0.00 0.00 68 1016.5
20260507081021 17 0.0 0.0 0.00 0.00 0.00 67 1016.2
20260507080020 17 0.0 0.0 0.00 0.00 0.00 67 1016.1
20260507075020 17 0.0 0.0 0.00 0.00 0.00 66 1015.8
20260507074021 17 0.0 0.0 0.00 0.00 0.00 66 1016.0
20260507073020 17 0.0 0.0 0.00 0.00 0.00 65 1015.6
20260507072020 18 0.0 0.0 0.00 0.00 0.00 65 1015.6
20260507071020 18 0.0 0.0 0.00 0.00 0.00 64 1015.3
20260507070111 18 0.0 0.0 0.00 0.00 0.00 63 1015.5
20260507065020 18 0.0 0.0 0.00 0.00 0.00 63 1015.5
20260507064020 18 0.0 0.0 0.00 0.00 0.00 62 1015.4
20260507063020 19 0.0 0.0 0.00 0.00 0.00 61 1015.4
20260507062020 19 0.0 0.0 0.00 0.00 0.00 60 1015.5
20260507061020 19 0.0 0.0 0.00 0.00 0.00 59 1015.4
20260507060020 19 0.0 0.0 0.00 0.00 0.00 58 1015.3
20260507055022 20 0.0 0.0 0.00 0.00 0.00 57 1015.2
20260507054047 20 0.0 0.0 0.00 0.00 0.00 55 1015.0
20260507053022 20 0.0 0.0 0.00 0.00 0.00 53 1014.8
20260507052022 20 0.0 0.0 0.00 0.00 0.00 51 1014.8
20260507051022 20 0.0 0.0 0.00 0.00 0.00 49 1014.7
20260507050022 20 0.0 0.0 0.00 0.00 0.00 46 1014.7
20260507045021 20 0.0 0.0 0.00 0.00 0.00 43 1014.6
20260507044020 21 0.0 0.0 0.00 0.00 0.00 41 1014.4
20260507043045 21 0.0 0.0 0.00 0.00 0.00 40 1014.3
20260507042020 21 0.0 0.0 0.00 0.00 0.00 38 1014.2
20260507041020 22 0.0 0.0 0.00 0.00 0.00 37 1014.3
20260507040021 22 0.0 0.0 0.00 0.00 0.00 35 1014.1
20260507035021 22 0.0 0.0 0.00 0.00 0.00 34 1014.0
20260507034021 22 0.0 0.0 0.00 0.00 0.00 34 1013.8
20260507033021 22 0.0 0.0 0.00 0.00 0.00 34 1013.5
20260507032021 23 0.0 0.0 0.00 0.00 0.00 33 1013.4
20260507031020 23 0.0 0.0 0.00 0.00 0.00 32 1013.5
20260507030020 24 0.0 0.0 0.00 0.00 0.00 31 1013.7
20260507025046 24 0.0 0.0 0.00 0.00 0.00 30 1013.5
20260507024020 24 0.0 0.0 0.00 0.00 0.00 30 1013.4
20260507023021 25 0.0 0.0 0.00 0.00 0.00 30 1013.1
20260507022021 25 0.0 0.0 0.00 0.00 0.00 30 1013.0
20260507021020 25 0.0 0.0 0.00 0.00 0.00 29 1012.8
20260507020020 26 0.0 0.0 0.00 0.00 0.00 28 1012.6
20260507015020 26 0.0 0.0 0.00 0.00 0.00 27 1012.4
20260507014020 26 0.0 0.0 0.00 0.00 0.00 26 1012.1
20260507013020 27 0.0 0.0 0.00 0.00 0.00 26 1012.0
20260507012020 27 0.0 0.0 0.00 0.00 0.00 25 1012.1
20260507010045 27 0.0 0.0 0.00 0.00 0.00 24 1011.9
20260507005020 27 0.0 0.0 0.00 0.00 0.00 25 1011.9
20260507004020 27 0.0 0.0 0.00 0.00 0.00 24 1012.0
20260507003020 27 0.0 0.0 0.00 0.00 0.00 24 1012.0
20260507002020 27 0.0 0.0 0.00 0.00 0.00 24 1011.9
20260507001045 27 0.0 0.0 0.00 0.00 0.00 24 1011.9
20260507000020 27 0.0 0.0 0.00 0.00 0.00 25 1012.0
20260506235110 27 0.0 0.0 0.00 0.00 0.00 24 1012.0
20260506234020 27 0.0 0.0 0.00 0.00 0.00 24 1012.0
20260506233020 27 0.0 0.0 0.00 0.00 0.00 25 1011.9
20260506232024 27 0.0 0.0 0.00 0.00 0.00 25 1011.8
20260506231048 27 0.0 0.0 0.00 0.00 0.00 25 1011.7
20260506230023 27 0.0 0.0 0.00 0.00 0.00 25 1011.9
20260506225020 27 0.0 0.0 0.00 0.00 0.00 25 1011.8
20260506224020 27 0.0 0.0 0.00 0.00 0.00 25 1012.1
20260506223045 27 0.0 0.0 0.00 0.00 0.00 25 1012.3
20260506222022 27 0.0 0.0 0.00 0.00 0.00 26 1012.3
20260506221023 27 0.0 0.0 0.00 0.00 0.00 26 1012.1
20260506220020 27 0.0 0.0 0.00 0.00 0.00 27 1012.0
20260506215022 27 0.0 0.0 0.00 0.00 0.00 28 1012.0
20260506214022 26 0.0 0.0 0.00 0.00 0.00 28 1011.9
20260506213022 26 0.0 0.0 0.00 0.00 0.00 29 1012.0
20260506212022 26 0.0 0.0 0.00 0.00 0.00 29 1012.3
20260506211022 26 0.0 0.0 0.00 0.00 0.00 29 1012.3
20260506210022 26 0.0 0.0 0.00 0.00 0.00 29 1012.3
20260506205112 26 0.0 0.0 0.00 0.00 0.00 29 1012.5
20260506204022 26 0.0 0.0 0.00 0.00 0.00 31 1012.7
20260506203112 25 0.0 0.0 0.00 0.00 0.00 32 1012.7
20260506202022 25 0.0 0.0 0.00 0.00 0.00 31 1013.0
20260506201047 25 0.0 0.0 0.00 0.00 0.00 33 1013.3
20260506200022 25 0.0 0.0 0.00 0.00 0.00 33 1013.1
20260506195047 24 0.0 0.0 0.00 0.00 0.00 34 1013.2
20260506194021 24 0.0 0.0 0.00 0.00 0.00 35 1013.2
20260506193022 23 0.0 0.0 0.00 0.00 0.00 35 1013.2